Tracking 29892 objects as of 21-Nov-2024
HD Live streaming from Space Station
objects crossing your sky now

STARLINK-1664

Track STARLINK-1664 now!
10-day predictions
STARLINK-1664 is classified as:


NORAD ID: 46553
Int'l Code: 2020-070X
Perigee: 553.4 km
Apogee: 555.2 km
Inclination: 53.1 °
Period: 95.6 minutes
Semi major axis: 6925 km
RCS: Unknown
Launch date: October 6, 2020
Source: United States (US)
Launch site: AIR FORCE EASTERN TEST RANGE (AFETR)
Your satellite tracking list
Your tracking list is empty




NASA's NSSDC Master Catalog

Two Line Element Set (TLE):
1 46553U 20070X   24325.78529707  .00000477  00000-0  50888-4 0  9994
2 46553  53.0538 114.0665 0001265  90.6279 269.4855 15.06422554228497
Source of the keplerian elements: AFSPC